QPF
0.10 0.11 0.09 0.09 0.09 0.07 0.07 0.08 0.07 0.08 0.08 0.10 0.12 0.12 0.09 0.07 0.08 0.11 0.10 0.07 0.04 0.03 0.04 0.04 0.05 0.04 0.03 0.03 0.05 0.08 0.09 0.07 0.06 0.05 0.05 0.04 0.04 0.05 0.05 0.05 0.05 0.06 0.06
0.10 0.10 0.10 0.10 0.09 0.07 0.07 0.07 0.08 0.09 0.09 0.10 0.12 0.13 0.12 0.08 0.07 0.08 0.09 0.08 0.06 0.05 0.04 0.04 0.04 0.05 0.04 0.04 0.05 0.06 0.06 0.05 0.05 0.05 0.04 0.04 0.03 0.03 0.04 0.05 0.05 0.05 0.05
0.07 0.10 0.09 0.09 0.09 0.07 0.08 0.11 0.16 0.13 0.09 0.10 0.12 0.12 0.12 0.09 0.07 0.08 0.10 0.10 0.09 0.08 0.07 0.05 0.04 0.05 0.05 0.06 0.06 0.06 0.06 0.07 0.08 0.06 0.04 0.04 0.03 0.03 0.03 0.04 0.05 0.04 0.05
0.06 0.08 0.08 0.08 0.10 0.10 0.09 0.11 0.19 0.23 0.20 0.15 0.11 0.09 0.07 0.06 0.05 0.05 0.07 0.09 0.10 0.10 0.10 0.08 0.07 0.09 0.08 0.08 0.08 0.08 0.07 0.08 0.09 0.07 0.05 0.04 0.03 0.03 0.03 0.03 0.04 0.04 0.05
0.05 0.06 0.06 0.08 0.11 0.11 0.08 0.07 0.12 0.19 0.23 0.24 0.17 0.13 0.09 0.06 0.05 0.04 0.06 0.08 0.08 0.09 0.11 0.12 0.10 0.10 0.10 0.09 0.08 0.08 0.09 0.08 0.09 0.08 0.05 0.04 0.03 0.03 0.03 0.03 0.03 0.04 0.05
0.04 0.04 0.06 0.07 0.08 0.09 0.09 0.10 0.12 0.13 0.17 0.21 0.17 0.17 0.15 0.09 0.07 0.06 0.07 0.07 0.06 0.07 0.09 0.12 0.11 0.08 0.08 0.07 0.07 0.08 0.09 0.09 0.10 0.11 0.07 0.05 0.05 0.05 0.03 0.03 0.04 0.03 0.04
0.04 0.04 0.06 0.10 0.10 0.11 0.11 0.12 0.13 0.12 0.14 0.16 0.16 0.19 0.18 0.13 0.11 0.09 0.10 0.10 0.07 0.07 0.08 0.11 0.14 0.14 0.12 0.08 0.06 0.06 0.07 0.07 0.09 0.12 0.10 0.08 0.07 0.07 0.05 0.04 0.04 0.04 0.04
0.04 0.04 0.05 0.11 0.12 0.12 0.13 0.14 0.14 0.15 0.14 0.15 0.16 0.18 0.18 0.17 0.14 0.11 0.10 0.09 0.08 0.09 0.07 0.08 0.10 0.10 0.09 0.07 0.05 0.05 0.06 0.06 0.07 0.08 0.09 0.09 0.08 0.05 0.04 0.04 0.05 0.05 0.03
0.04 0.06 0.06 0.08 0.11 0.10 0.11 0.13 0.14 0.14 0.14 0.15 0.16 0.16 0.16 0.16 0.15 0.14 0.10 0.07 0.08 0.08 0.07 0.08 0.08 0.07 0.07 0.09 0.07 0.05 0.04 0.04 0.05 0.06 0.08 0.09 0.06 0.04 0.05 0.05 0.05 0.03 0.03
0.03 0.04 0.05 0.08 0.10 0.10 0.09 0.10 0.14 0.16 0.16 0.17 0.15 0.15 0.15 0.14 0.14 0.14 0.12 0.08 0.08 0.06 0.06 0.05 0.05 0.06 0.07 0.09 0.08 0.06 0.03 0.02 0.03 0.07 0.07 0.07 0.05 0.04 0.05 0.05 0.06 0.05 0.04
0.03 0.03 0.03 0.05 0.06 0.09 0.08 0.08 0.11 0.14 0.15 0.14 0.14 0.14 0.12 0.11 0.10 0.11 0.12 0.10 0.08 0.06 0.06 0.05 0.04 0.06 0.08 0.08 0.07 0.04 0.04 0.02 0.02 0.05 0.08 0.08 0.05 0.05 0.05 0.06 0.07 0.07 0.08
0.02 0.02 0.02 0.03 0.04 0.06 0.07 0.07 0.08 0.10 0.12 0.11 0.12 0.14 0.12 0.10 0.09 0.10 0.12 0.12 0.10 0.06 0.06 0.05 0.06 0.07 0.06 0.07 0.05 0.02 0.02 0.02 0.02 0.03 0.06 0.07 0.07 0.07 0.06 0.05 0.05 0.07 0.08
0.02 0.02 0.03 0.04 0.04 0.06 0.07 0.09 0.10 0.09 0.08 0.09 0.10 0.09 0.10 0.11 0.11 0.11 0.11 0.11 0.11 0.07 0.06 0.05 0.05 0.07 0.07 0.09 0.09 0.04 0.03 0.02 0.02 0.02 0.04 0.06 0.08 0.09 0.09 0.07 0.05 0.06 0.09
0.01 0.02 0.02 0.02 0.03 0.04 0.06 0.08 0.07 0.08 0.07 0.06 0.07 0.07 0.07 0.07 0.08 0.10 0.10 0.10 0.10 0.09 0.08 0.06 0.05 0.06 0.07 0.08 0.09 0.07 0.06 0.05 0.04 0.04 0.03 0.03 0.06 0.08 0.09 0.07 0.06 0.05 0.05
0.00 0.01 0.02 0.02 0.03 0.03 0.05 0.07 0.06 0.05 0.05 0.05 0.05 0.05 0.05 0.05 0.05 0.06 0.08 0.09 0.11 0.12 0.11 0.11 0.08 0.05 0.06 0.06 0.07 0.07 0.10 0.12 0.09 0.08 0.05 0.04 0.05 0.05 0.07 0.05 0.04 0.04 0.03
0.01 0.01 0.01 0.02 0.02 0.03 0.04 0.06 0.06 0.05 0.05 0.06 0.07 0.06 0.06 0.07 0.08 0.06 0.08 0.11 0.13 0.14 0.12 0.10 0.08 0.06 0.05 0.06 0.10 0.09 0.13 0.14 0.12 0.10 0.08 0.07 0.07 0.07 0.07 0.06 0.04 0.03 0.03
0.02 0.02 0.02 0.02 0.02 0.03 0.05 0.06 0.05 0.06 0.06 0.07 0.08 0.09 0.08 0.07 0.08 0.07 0.06 0.07 0.09 0.11 0.11 0.09 0.07 0.06 0.06 0.07 0.09 0.09 0.10 0.11 0.10 0.10 0.09 0.09 0.07 0.05 0.06 0.06 0.03 0.02 0.02
0.02 0.02 0.03 0.02 0.02 0.03 0.04 0.04 0.04 0.05 0.06 0.06 0.08 0.10 0.11 0.10 0.11 0.10 0.08 0.07 0.08 0.09 0.11 0.12 0.10 0.10 0.10 0.07 0.07 0.06 0.07 0.09 0.12 0.11 0.08 0.08 0.08 0.07 0.06 0.06 0.05 0.03 0.02
0.04 0.03 0.03 0.02 0.02 0.03 0.03 0.04 0.04 0.04 0.05 0.06 0.09 0.08 0.08 0.09 0.11 0.11 0.09 0.08 0.07 0.07 0.10 0.11 0.09 0.11 0.10 0.07 0.08 0.07 0.07 0.10 0.12 0.12 0.09 0.08 0.08 0.06 0.06 0.06 0.05 0.04 0.03
0.04 0.05 0.05 0.05 0.04 0.04 0.04 0.04 0.04 0.05 0.06 0.07 0.07 0.06 0.05 0.07 0.08 0.09 0.09 0.09 0.08 0.10 0.09 0.09 0.09 0.09 0.08 0.07 0.09 0.09 0.10 0.10 0.11 0.12 0.08 0.07 0.06 0.05 0.04 0.04 0.04 0.04 0.03
0.03 0.04 0.04 0.04 0.03 0.03 0.03 0.04 0.05 0.05 0.06 0.07 0.06 0.06 0.05 0.04 0.05 0.05 0.06 0.08 0.08 0.08 0.08 0.08 0.07 0.07 0.07 0.06 0.06 0.07 0.08 0.10 0.11 0.12 0.08 0.05 0.05 0.05 0.05 0.04 0.03 0.04 0.04
0.03 0.04 0.03 0.03 0.03 0.03 0.03 0.03 0.03 0.04 0.06 0.07 0.07 0.06 0.04 0.03 0.03 0.03 0.03 0.04 0.04 0.04 0.05 0.05 0.06 0.06 0.07 0.06 0.05 0.05 0.07 0.09 0.10 0.12 0.08 0.07 0.06 0.05 0.04 0.03 0.04 0.03 0.02
0.02 0.03 0.04 0.03 0.03 0.05 0.04 0.02 0.01 0.03 0.03 0.04 0.05 0.05 0.03 0.03 0.03 0.02 0.02 0.01 0.01 0.01 0.02 0.03 0.05 0.05 0.05 0.05 0.05 0.05 0.08 0.10 0.09 0.11 0.10 0.09 0.09 0.07 0.04 0.03 0.03 0.03 0.02
0.02 0.03 0.03 0.04 0.04 0.04 0.03 0.03 0.02 0.02 0.03 0.03 0.04 0.04 0.04 0.04 0.03 0.03 0.02 0.02 0.02 0.01 0.01 0.02 0.03 0.03 0.03 0.04 0.05 0.05 0.09 0.13 0.13 0.13 0.11 0.10 0.08 0.07 0.06 0.04 0.02 0.02 0.02
0.03 0.03 0.04 0.04 0.04 0.05 0.04 0.03 0.03 0.02 0.03 0.03 0.04 0.04 0.04 0.04 0.04 0.04 0.03 0.04 0.04 0.02 0.01 0.01 0.01 0.02 0.01 0.02 0.02 0.05 0.07 0.12 0.14 0.13 0.11 0.10 0.08 0.06 0.06 0.05 0.03 0.02 0.01
0.04 0.04 0.04 0.04 0.04 0.06 0.05 0.04 0.03 0.03 0.03 0.04 0.04 0.04 0.04 0.04 0.05 0.04 0.04 0.04 0.05 0.03 0.02 0.02 0.02 0.02 0.02 0.02 0.02 0.04 0.06 0.09 0.11 0.11 0.09 0.07 0.07 0.06 0.06 0.05 0.03 0.02 0.01
MSLP
1004.26 1004.48 1004.69 1004.89 1005.09 1005.29 1005.49 1005.71 1005.92 1006.10 1006.25 1006.34 1006.37 1006.33 1006.24 1006.10 1005.93 1005.76 1005.61 1005.50 1005.44 1005.43 1005.50 1005.62 1005.80 1006.04 1006.32 1006.64 1006.99 1007.36 1007.76 1008.18 1008.62 1009.07 1009.54 1010.00 1010.44 1010.86 1011.23 1011.54 1011.81 1012.05 1012.27
1005.02 1005.10 1005.16 1005.21 1005.27 1005.35 1005.47 1005.63 1005.81 1006.00 1006.15 1006.26 1006.29 1006.22 1006.07 1005.84 1005.55 1005.25 1004.94 1004.69 1004.50 1004.40 1004.40 1004.49 1004.66 1004.91 1005.20 1005.53 1005.88 1006.25 1006.63 1007.04 1007.48 1007.95 1008.44 1008.95 1009.46 1009.94 1010.38 1010.77 1011.10 1011.39 1011.66
1005.61 1005.57 1005.51 1005.44 1005.40 1005.40 1005.45 1005.56 1005.72 1005.90 1006.06 1006.18 1006.22 1006.16 1005.98 1005.70 1005.34 1004.93 1004.51 1004.14 1003.85 1003.65 1003.58 1003.62 1003.77 1003.99 1004.27 1004.57 1004.89 1005.23 1005.57 1005.94 1006.36 1006.81 1007.32 1007.86 1008.42 1008.97 1009.49 1009.96 1010.37 1010.72 1011.04
1006.05 1005.93 1005.80 1005.66 1005.55 1005.48 1005.48 1005.54 1005.66 1005.82 1005.98 1006.10 1006.16 1006.10 1005.93 1005.65 1005.26 1004.80 1004.33 1003.89 1003.53 1003.27 1003.13 1003.12 1003.21 1003.39 1003.62 1003.88 1004.14 1004.40 1004.68 1004.99 1005.35 1005.77 1006.26 1006.80 1007.39 1007.99 1008.57 1009.10 1009.57 1009.97 1010.32
1006.40 1006.25 1006.08 1005.92 1005.77 1005.66 1005.61 1005.62 1005.69 1005.79 1005.92 1006.03 1006.08 1006.05 1005.90 1005.65 1005.29 1004.85 1004.38 1003.92 1003.53 1003.23 1003.05 1002.99 1003.03 1003.15 1003.32 1003.50 1003.68 1003.86 1004.05 1004.27 1004.54 1004.90 1005.34 1005.86 1006.44 1007.05 1007.65 1008.20 1008.69 1009.10 1009.43
1006.74 1006.59 1006.43 1006.27 1006.12 1005.98 1005.88 1005.82 1005.81 1005.84 1005.90 1005.97 1006.00 1005.98 1005.88 1005.68 1005.38 1005.01 1004.59 1004.18 1003.80 1003.50 1003.30 1003.20 1003.20 1003.26 1003.35 1003.45 1003.55 1003.64 1003.72 1003.84 1004.02 1004.29 1004.65 1005.10 1005.63 1006.19 1006.76 1007.28 1007.72 1008.08 1008.36
1007.14 1007.01 1006.89 1006.75 1006.60 1006.45 1006.30 1006.17 1006.06 1006.00 1005.97 1005.96 1005.96 1005.93 1005.87 1005.73 1005.52 1005.24 1004.91 1004.57 1004.24 1003.97 1003.78 1003.66 1003.62 1003.63 1003.67 1003.70 1003.72 1003.72 1003.72 1003.74 1003.82 1003.98 1004.24 1004.59 1005.02 1005.49 1005.96 1006.37 1006.72 1006.96 1007.12
1007.62 1007.53 1007.44 1007.34 1007.21 1007.05 1006.86 1006.65 1006.45 1006.27 1006.13 1006.04 1005.98 1005.94 1005.89 1005.81 1005.68 1005.50 1005.27 1005.01 1004.76 1004.53 1004.36 1004.25 1004.19 1004.17 1004.17 1004.16 1004.13 1004.07 1004.00 1003.94 1003.94 1003.99 1004.14 1004.37 1004.66 1004.99 1005.30 1005.57 1005.74 1005.82 1005.82
1008.17 1008.11 1008.06 1008.00 1007.89 1007.73 1007.51 1007.24 1006.95 1006.67 1006.43 1006.24 1006.11 1006.04 1005.99 1005.95 1005.88 1005.78 1005.63 1005.45 1005.26 1005.08 1004.94 1004.84 1004.78 1004.75 1004.74 1004.71 1004.66 1004.58 1004.48 1004.38 1004.31 1004.28 1004.32 1004.42 1004.57 1004.73 1004.86 1004.93 1004.91 1004.78 1004.58
1008.77 1008.72 1008.70 1008.66 1008.58 1008.42 1008.19 1007.89 1007.54 1007.18 1006.85 1006.58 1006.39 1006.27 1006.20 1006.16 1006.13 1006.06 1005.97 1005.84 1005.69 1005.55 1005.42 1005.33 1005.29 1005.27 1005.26 1005.25 1005.21 1005.15 1005.05 1004.94 1004.84 1004.76 1004.72 1004.71 1004.71 1004.71 1004.66 1004.53 1004.30 1003.97 1003.57
1009.35 1009.29 1009.28 1009.26 1009.20 1009.07 1008.84 1008.54 1008.16 1007.77 1007.38 1007.06 1006.81 1006.63 1006.53 1006.47 1006.43 1006.37 1006.29 1006.17 1006.04 1005.90 1005.78 1005.70 1005.66 1005.66 1005.68 1005.70 1005.70 1005.67 1005.61 1005.53 1005.43 1005.33 1005.23 1005.14 1005.04 1004.89 1004.69 1004.39 1003.98 1003.48 1002.91
1009.87 1009.80 1009.77 1009.76 1009.72 1009.62 1009.42 1009.14 1008.78 1008.38 1007.98 1007.62 1007.33 1007.12 1006.97 1006.87 1006.79 1006.70 1006.59 1006.46 1006.31 1006.16 1006.03 1005.94 1005.91 1005.92 1005.96 1006.02 1006.06 1006.09 1006.08 1006.04 1005.96 1005.87 1005.76 1005.63 1005.46 1005.23 1004.92 1004.50 1003.97 1003.34 1002.65
1010.32 1010.21 1010.17 1010.16 1010.13 1010.06 1009.91 1009.67 1009.35 1008.98 1008.59 1008.23 1007.92 1007.66 1007.47 1007.32 1007.19 1007.05 1006.90 1006.72 1006.53 1006.35 1006.20 1006.09 1006.05 1006.07 1006.12 1006.21 1006.30 1006.37 1006.41 1006.41 1006.38 1006.31 1006.22 1006.08 1005.89 1005.63 1005.28 1004.81 1004.22 1003.54 1002.78
1010.72 1010.56 1010.49 1010.47 1010.46 1010.41 1010.30 1010.11 1009.84 1009.51 1009.16 1008.81 1008.49 1008.22 1007.99 1007.79 1007.60 1007.41 1007.20 1006.97 1006.74 1006.52 1006.34 1006.21 1006.15 1006.16 1006.22 1006.31 1006.42 1006.51 1006.59 1006.63 1006.63 1006.60 1006.54 1006.43 1006.26 1006.02 1005.69 1005.23 1004.66 1003.99 1003.24
1011.08 1010.90 1010.80 1010.76 1010.74 1010.71 1010.63 1010.48 1010.25 1009.97 1009.65 1009.32 1009.01 1008.72 1008.46 1008.22 1007.99 1007.75 1007.50 1007.23 1006.96 1006.71 1006.50 1006.35 1006.26 1006.25 1006.29 1006.37 1006.47 1006.56 1006.64 1006.70 1006.72 1006.72 1006.70 1006.63 1006.52 1006.34 1006.07 1005.69 1005.19 1004.59 1003.90
1011.46 1011.25 1011.13 1011.07 1011.04 1011.00 1010.93 1010.80 1010.60 1010.34 1010.04 1009.73 1009.42 1009.13 1008.85 1008.59 1008.33 1008.06 1007.78 1007.49 1007.20 1006.93 1006.70 1006.53 1006.42 1006.38 1006.39 1006.43 1006.50 1006.56 1006.62 1006.66 1006.68 1006.70 1006.70 1006.69 1006.65 1006.55 1006.38 1006.10 1005.72 1005.22 1004.64
1011.88 1011.67 1011.53 1011.44 1011.39 1011.33 1011.24 1011.10 1010.90 1010.64 1010.34 1010.03 1009.72 1009.42 1009.14 1008.86 1008.59 1008.32 1008.03 1007.74 1007.46 1007.19 1006.96 1006.77 1006.64 1006.57 1006.53 1006.53 1006.54 1006.55 1006.56 1006.56 1006.57 1006.58 1006.60 1006.63 1006.65 1006.64 1006.58 1006.43 1006.17 1005.81 1005.34
1012.33 1012.13 1011.99 1011.88 1011.80 1011.71 1011.58 1011.40 1011.16 1010.88 1010.56 1010.24 1009.92 1009.61 1009.33 1009.06 1008.79 1008.53 1008.26 1007.99 1007.72 1007.47 1007.24 1007.05 1006.90 1006.80 1006.72 1006.65 1006.60 1006.55 1006.49 1006.45 1006.42 1006.42 1006.45 1006.51 1006.59 1006.66 1006.69 1006.66 1006.52 1006.29 1005.94
1012.79 1012.61 1012.47 1012.36 1012.24 1012.10 1011.92 1011.69 1011.41 1011.08 1010.73 1010.38 1010.05 1009.74 1009.45 1009.19 1008.95 1008.70 1008.46 1008.21 1007.97 1007.73 1007.52 1007.33 1007.17 1007.03 1006.91 1006.79 1006.68 1006.56 1006.45 1006.36 1006.29 1006.27 1006.30 1006.38 1006.50 1006.63 1006.75 1006.81 1006.78 1006.65 1006.41
1013.21 1013.06 1012.93 1012.80 1012.66 1012.48 1012.25 1011.96 1011.63 1011.25 1010.87 1010.49 1010.14 1009.83 1009.55 1009.30 1009.07 1008.85 1008.63 1008.41 1008.18 1007.96 1007.76 1007.56 1007.39 1007.22 1007.07 1006.91 1006.75 1006.59 1006.43 1006.30 1006.20 1006.16 1006.19 1006.29 1006.43 1006.61 1006.78 1006.92 1006.97 1006.93 1006.77
1013.51 1013.39 1013.28 1013.16 1013.00 1012.79 1012.52 1012.18 1011.80 1011.39 1010.97 1010.58 1010.22 1009.90 1009.63 1009.39 1009.18 1008.98 1008.77 1008.56 1008.35 1008.14 1007.93 1007.73 1007.54 1007.35 1007.17 1006.98 1006.79 1006.60 1006.42 1006.26 1006.15 1006.11 1006.14 1006.24 1006.41 1006.61 1006.82 1007.01 1007.12 1007.14 1007.05
1013.68 1013.58 1013.49 1013.37 1013.21 1012.98 1012.68 1012.31 1011.90 1011.47 1011.04 1010.63 1010.28 1009.97 1009.70 1009.48 1009.28 1009.08 1008.88 1008.67 1008.46 1008.23 1008.01 1007.80 1007.59 1007.39 1007.19 1006.99 1006.79 1006.59 1006.41 1006.25 1006.14 1006.10 1006.13 1006.24 1006.42 1006.64 1006.87 1007.08 1007.23 1007.29 1007.25
1013.68 1013.60 1013.53 1013.42 1013.25 1013.02 1012.71 1012.34 1011.92 1011.48 1011.05 1010.65 1010.31 1010.01 1009.76 1009.55 1009.35 1009.15 1008.94 1008.72 1008.49 1008.25 1008.01 1007.77 1007.56 1007.34 1007.14 1006.94 1006.75 1006.56 1006.39 1006.24 1006.14 1006.11 1006.15 1006.26 1006.44 1006.67 1006.90 1007.13 1007.29 1007.39 1007.38
1013.55 1013.48 1013.41 1013.30 1013.15 1012.91 1012.61 1012.24 1011.83 1011.41 1011.00 1010.62 1010.29 1010.01 1009.77 1009.56 1009.36 1009.15 1008.93 1008.69 1008.43 1008.17 1007.91 1007.67 1007.43 1007.22 1007.03 1006.84 1006.67 1006.50 1006.35 1006.23 1006.15 1006.12 1006.16 1006.27 1006.44 1006.65 1006.88 1007.10 1007.28 1007.39 1007.42
1013.32 1013.25 1013.18 1013.08 1012.93 1012.71 1012.41 1012.06 1011.67 1011.26 1010.87 1010.52 1010.21 1009.94 1009.71 1009.50 1009.29 1009.07 1008.83 1008.57 1008.29 1008.01 1007.74 1007.49 1007.26 1007.06 1006.88 1006.72 1006.57 1006.43 1006.31 1006.21 1006.14 1006.12 1006.15 1006.24 1006.38 1006.57 1006.78 1006.98 1007.15 1007.28 1007.34
1013.06 1012.98 1012.91 1012.81 1012.66 1012.45 1012.16 1011.83 1011.46 1011.07 1010.70 1010.37 1010.07 1009.81 1009.58 1009.36 1009.13 1008.89 1008.63 1008.35 1008.06 1007.77 1007.50 1007.26 1007.05 1006.87 1006.73 1006.60 1006.49 1006.38 1006.28 1006.19 1006.12 1006.09 1006.10 1006.15 1006.25 1006.40 1006.57 1006.74 1006.90 1007.04 1007.13
Thickness
5772 5772 5772 5771 5770 5770 5770 5769 5770 5770 5771 5771 5771 5771 5771 5771 5771 5770 5768 5767 5767 5766 5764 5763 5761 5760 5759 5758 5756 5755 5754 5752 5751 5750 5748 5747 5745 5743 5741 5739 5738 5736 5735
5771 5770 5770 5769 5769 5769 5770 5769 5770 5769 5769 5769 5769 5770 5770 5770 5770 5769 5767 5766 5765 5765 5764 5762 5761 5760 5759 5758 5756 5755 5754 5752 5751 5749 5748 5746 5744 5743 5741 5739 5738 5736 5734
5769 5769 5768 5768 5768 5768 5769 5769 5769 5768 5768 5768 5768 5768 5768 5768 5768 5767 5767 5765 5764 5763 5762 5761 5760 5759 5758 5757 5756 5755 5753 5752 5750 5748 5747 5746 5744 5742 5741 5739 5738 5736 5734
5768 5767 5766 5766 5767 5767 5767 5767 5766 5765 5765 5765 5765 5766 5767 5767 5767 5766 5765 5765 5764 5763 5761 5760 5759 5758 5757 5756 5755 5753 5752 5751 5749 5748 5747 5745 5744 5742 5740 5739 5737 5735 5734
5767 5766 5764 5764 5764 5764 5764 5764 5763 5762 5761 5761 5762 5763 5764 5764 5765 5766 5765 5764 5764 5762 5761 5759 5757 5756 5756 5755 5753 5752 5751 5750 5748 5747 5746 5745 5743 5742 5740 5739 5737 5735 5734
5765 5764 5763 5762 5762 5762 5760 5760 5760 5760 5759 5759 5760 5761 5761 5763 5763 5763 5763 5764 5763 5762 5761 5759 5756 5754 5754 5753 5752 5751 5750 5749 5747 5746 5745 5744 5743 5741 5739 5738 5736 5735 5734
5764 5762 5761 5760 5760 5758 5757 5757 5756 5756 5756 5757 5753 5752 5756 5760 5760 5760 5761 5761 5762 5761 5760 5758 5756 5754 5753 5751 5750 5749 5748 5747 5746 5745 5743 5742 5741 5740 5738 5737 5735 5734 5732
5762 5762 5758 5757 5757 5755 5754 5754 5753 5751 5752 5753 5748 5744 5742 5746 5752 5758 5757 5757 5758 5759 5758 5757 5754 5753 5753 5751 5749 5747 5746 5745 5744 5743 5742 5741 5739 5738 5736 5735 5733 5732 5731
5761 5759 5757 5755 5754 5753 5751 5752 5751 5749 5746 5749 5750 5743 5736 5733 5740 5748 5751 5753 5754 5754 5754 5754 5753 5752 5751 5749 5747 5746 5744 5743 5742 5741 5740 5739 5737 5736 5734 5733 5731 5730 5728
5760 5757 5755 5753 5751 5751 5750 5749 5750 5748 5745 5742 5745 5746 5743 5740 5733 5733 5740 5746 5748 5749 5750 5752 5751 5750 5749 5747 5745 5744 5742 5741 5740 5739 5738 5737 5735 5733 5732 5730 5729 5727 5726
5758 5756 5754 5752 5750 5748 5747 5747 5746 5745 5743 5740 5739 5740 5739 5738 5737 5730 5728 5734 5739 5743 5746 5747 5747 5747 5746 5745 5743 5741 5740 5739 5737 5736 5735 5734 5733 5731 5729 5727 5726 5724 5723
5757 5755 5753 5750 5749 5747 5745 5744 5743 5742 5740 5739 5738 5737 5735 5733 5731 5729 5726 5726 5728 5734 5740 5742 5743 5742 5742 5740 5740 5739 5737 5736 5734 5733 5732 5731 5730 5728 5725 5724 5722 5721 5719
5754 5752 5751 5748 5746 5745 5743 5742 5740 5738 5737 5735 5734 5733 5734 5732 5732 5729 5725 5723 5724 5728 5733 5737 5739 5739 5738 5737 5735 5734 5733 5732 5730 5729 5728 5727 5726 5724 5722 5720 5718 5717 5715
5753 5751 5749 5746 5744 5742 5740 5738 5736 5735 5734 5732 5731 5730 5729 5729 5730 5728 5724 5721 5717 5719 5724 5728 5733 5735 5735 5733 5731 5730 5728 5727 5725 5724 5723 5722 5722 5720 5718 5716 5714 5713 5711
5753 5750 5747 5744 5741 5738 5736 5734 5731 5731 5730 5728 5727 5725 5724 5725 5726 5726 5725 5723 5716 5710 5713 5720 5724 5729 5730 5729 5727 5726 5724 5723 5720 5720 5719 5718 5717 5715 5713 5711 5709 5708 5706
5750 5747 5744 5741 5738 5736 5733 5731 5729 5728 5726 5724 5723 5721 5720 5721 5721 5722 5721 5721 5719 5713 5710 5716 5719 5722 5724 5724 5721 5720 5719 5718 5715 5715 5714 5713 5712 5710 5708 5706 5705 5703 5701
5747 5744 5741 5738 5735 5733 5730 5728 5726 5724 5722 5720 5719 5718 5716 5716 5714 5715 5716 5716 5715 5713 5707 5710 5714 5716 5717 5717 5715 5714 5713 5712 5711 5710 5709 5707 5706 5705 5703 5701 5699 5698 5696
5745 5742 5738 5735 5732 5730 5728 5725 5722 5721 5719 5716 5715 5714 5712 5712 5710 5710 5710 5710 5710 5709 5706 5703 5706 5708 5709 5710 5710 5709 5709 5708 5706 5704 5703 5702 5700 5699 5697 5696 5694 5692 5691
5742 5739 5736 5732 5729 5727 5725 5722 5720 5718 5716 5714 5712 5710 5708 5707 5704 5705 5704 5704 5704 5705 5703 5700 5699 5701 5702 5704 5703 5702 5703 5701 5700 5699 5697 5695 5694 5693 5691 5690 5688 5687 5685
5738 5735 5732 5730 5727 5724 5721 5718 5716 5714 5712 5711 5709 5707 5705 5703 5701 5700 5700 5699 5698 5697 5697 5696 5694 5694 5695 5697 5696 5694 5692 5693 5693 5693 5692 5690 5688 5686 5685 5683 5682 5681 5679
5736 5732 5729 5726 5724 5721 5717 5713 5711 5710 5707 5706 5704 5702 5700 5698 5696 5695 5695 5693 5692 5690 5690 5689 5687 5688 5688 5688 5687 5688 5686 5686 5686 5686 5685 5684 5682 5680 5678 5676 5675 5674 5672
5731 5728 5725 5722 5719 5716 5712 5708 5705 5704 5702 5700 5698 5696 5694 5692 5690 5688 5687 5687 5686 5684 5682 5681 5681 5680 5681 5682 5682 5682 5680 5678 5676 5679 5678 5677 5677 5675 5672 5670 5669 5668 5666
5727 5723 5720 5717 5713 5709 5706 5703 5701 5699 5697 5695 5693 5690 5689 5687 5684 5682 5680 5679 5678 5678 5678 5676 5675 5674 5675 5676 5676 5674 5674 5673 5672 5673 5671 5669 5670 5668 5667 5665 5664 5662 5660
5722 5719 5716 5713 5709 5705 5701 5698 5695 5694 5692 5689 5687 5684 5681 5678 5677 5675 5674 5673 5672 5672 5672 5672 5671 5670 5671 5671 5670 5669 5668 5667 5667 5667 5666 5661 5661 5661 5662 5659 5658 5657 5655
5717 5714 5711 5708 5704 5700 5696 5693 5690 5688 5686 5684 5682 5679 5676 5672 5670 5668 5667 5665 5665 5665 5665 5666 5665 5665 5664 5664 5664 5662 5660 5658 5656 5657 5659 5656 5655 5655 5654 5653 5652 5650 5649
5714 5710 5706 5703 5700 5696 5692 5688 5684 5683 5680 5678 5675 5673 5670 5667 5664 5661 5659 5658 5656 5656 5657 5658 5658 5658 5658 5658 5657 5656 5654 5652 5651 5650 5652 5651 5649 5648 5645 5647 5646 5643 5642